Wind_Speed
10 6 4 3 2 1 2 3 4 5 5 6 7 8 9 8 9 10 11 11 12 12 12 12 12 12 13 13 13 13 13 13 12 10 10 10 10 11 11 11 11 11 10 10
10 7 4 2 3 3 5 4 4 3 5 5 7 9 10 10 10 11 11 12 12 12 12 12 11 12 12 13 13 13 14 13 12 11 10 10 10 11 11 11 12 12 11 11
10 7 5 4 4 5 5 6 5 6 8 10 10 10 11 11 11 11 12 12 11 12 12 11 11 11 12 12 13 14 14 14 13 11 11 10 11 11 12 12 12 12 12 11
11 9 7 6 6 5 5 5 5 7 8 9 10 11 9 9 11 12 13 10 10 10 10 10 11 11 12 12 13 14 14 14 13 12 11 11 11 11 12 13 13 12 12 12
11 10 9 8 7 7 6 6 5 7 8 9 10 10 9 9 11 12 12 10 11 10 10 10 10 11 12 13 14 14 14 14 13 12 12 12 12 13 13 13 12 12 12 12
12 10 10 9 9 8 7 8 8 9 9 10 10 9 8 8 10 11 10 9 10 10 11 10 10 11 13 13 14 14 14 14 13 13 13 13 13 13 14 13 12 12 13 13
12 11 10 9 9 10 9 10 10 9 7 8 9 10 9 8 9 10 10 10 10 11 10 10 11 12 13 13 14 14 14 14 14 14 13 13 13 13 13 13 12 13 13 14
13 12 10 10 11 11 11 11 11 10 9 10 11 9 8 8 8 9 10 11 11 12 10 11 12 12 13 14 15 14 14 14 14 14 14 14 14 13 13 13 13 14 14 15
15 13 12 12 11 11 12 12 11 12 12 12 12 10 8 9 9 9 11 11 11 12 11 12 12 12 13 14 15 15 15 15 14 14 15 15 15 15 15 15 16 15 15 16
15 15 13 12 13 13 11 11 12 12 12 13 12 11 10 10 10 11 12 12 13 13 14 15 14 14 14 15 15 15 15 15 15 15 15 15 16 16 16 16 17 17 16 16
17 17 15 15 13 12 11 12 13 13 13 14 14 13 12 11 11 11 13 14 15 15 16 16 15 15 15 15 15 15 16 16 15 15 15 16 16 17 17 17 17 17 17 17
17 17 17 16 15 15 14 13 14 15 15 16 16 15 13 13 14 12 13 15 15 16 16 16 16 15 14 15 15 16 17 17 16 16 16 16 17 18 18 18 18 18 18 18
17 18 18 18 17 16 17 15 15 16 16 16 16 16 14 15 14 13 14 15 15 16 17 17 16 16 16 16 16 17 17 17 17 17 17 17 18 18 18 19 19 19 19 18
19 19 19 20 19 18 16 14 14 15 16 17 17 17 16 15 15 15 16 16 16 17 18 17 17 17 17 17 17 18 18 18 18 18 18 19 19 19 20 20 20 20 20 20
20 20 20 20 19 19 18 16 16 17 18 17 17 17 16 16 16 17 17 16 17 18 18 18 19 19 19 19 19 19 19 19 19 19 20 20 20 20 21 21 22 22 22 21
21 20 20 20 20 20 20 19 18 19 18 18 18 19 18 18 18 18 18 18 19 19 19 20 21 21 21 21 21 21 20 20 20 20 20 21 22 22 22 22 22 23 22 22
22 20 21 21 20 20 21 21 20 20 20 20 20 20 20 21 20 20 19 20 21 21 20 21 21 21 22 22 22 21 20 21 21 21 21 22 23 23 23 23 23 23 23 23
24 22 21 21 21 22 21 21 21 21 22 23 23 22 22 21 21 20 21 21 21 21 22 22 21 21 22 22 22 22 22 22 23 23 23 23 23 23 23 24 24 24 24 24
25 24 23 23 23 21 21 21 21 22 22 22 23 22 22 21 21 21 21 21 22 22 22 22 22 22 23 23 23 23 23 23 24 24 24 24 24 24 24 24 24 24 24 24
26 25 25 24 23 23 21 20 21 22 23 21 21 21 22 22 22 21 22 22 23 22 22 23 23 23 24 24 24 24 24 25 25 24 24 24 24 25 25 25 25 25 25 24
27 27 26 25 25 24 22 20 20 22 22 21 21 22 22 23 24 24 23 23 23 23 23 24 24 25 25 24 24 24 25 25 24 24 25 25 25 25 26 25 25 25 25 25
28 28 27 25 24 23 22 21 21 21 22 22 22 23 24 25 25 24 24 24 24 24 25 25 25 25 25 24 24 24 24 24 24 25 26 26 26 26 26 25 25 25 25 25
29 28 27 26 24 23 23 22 22 22 22 23 23 23 24 24 24 24 24 24 24 24 25 26 25 25 25 25 25 25 24 24 25 26 26 26 26 26 26 25 25 25 25 25
30 29 29 27 25 24 24 23 23 23 24 24 24 23 24 24 25 24 24 24 25 25 25 25 25 25 25 24 25 25 25 25 25 26 26 26 26 25 25 25 24 24 25 25
30 30 29 28 26 25 25 24 23 24 26 25 25 25 25 25 26 25 26 26 26 26 25 25 25 25 25 25 26 26 26 26 26 26 26 26 26 26 25 25 25 25 25 24
29 30 30 30 29 27 27 26 26 26 27 27 27 26 25 25 26 27 27 27 27 27 25 25 25 25 25 25 25 25 26 26 27 27 27 27 27 26 26 26 25 24 24 25
Wind_Direction
186 179 158 152 153 258 301 334 353 352 344 339 339 336 335 350 3 9 9 7 5 4 3 2 3 2 1 1 2 0 357 353 350 346 346 344 343 343 341 337 333 330 327 324
190 185 171 191 210 255 275 301 313 322 314 311 325 330 335 342 355 6 5 1 1 1 360 358 359 357 355 356 356 355 353 351 349 345 340 342 342 341 337 336 336 334 327 326
194 200 208 231 247 260 274 301 307 301 299 299 310 330 330 345 348 357 357 353 353 359 359 355 354 355 355 353 351 351 352 351 350 345 340 342 342 338 335 336 337 334 332 331
201 206 221 239 247 258 274 290 297 296 293 300 307 323 332 337 341 348 349 348 346 350 354 350 347 348 350 350 349 349 349 350 350 348 347 344 340 335 335 335 334 333 333 332
208 214 227 242 254 259 267 271 277 285 293 298 310 320 331 335 335 342 347 349 347 347 354 347 343 344 344 345 345 346 346 344 344 343 342 341 340 338 336 336 335 336 335 332
212 219 235 247 250 255 266 276 282 286 292 299 300 311 322 333 336 345 354 352 353 350 354 352 345 343 341 339 340 342 343 343 342 340 340 338 336 334 336 340 340 338 336 334
224 228 243 251 254 252 257 272 280 281 286 296 302 305 309 317 329 343 349 346 350 349 347 344 344 342 337 335 336 337 339 339 339 339 337 336 333 332 335 337 336 334 333 332
234 236 244 251 252 251 258 269 275 281 283 291 300 304 316 324 332 338 340 342 338 338 336 339 338 338 336 334 333 333 334 335 335 335 335 336 335 333 333 332 330 328 327 325
235 240 245 247 245 250 255 260 274 281 284 290 296 291 305 320 329 332 332 334 330 323 324 332 333 332 331 328 330 332 332 332 331 331 331 331 329 329 330 330 329 326 324 324
239 246 240 240 243 245 253 266 274 279 280 286 291 293 307 316 328 329 326 324 324 319 324 327 328 328 325 324 325 327 329 327 326 326 326 327 327 325 325 325 323 323 323 324
240 245 246 244 245 248 250 258 262 272 277 279 283 290 299 307 317 322 324 323 322 320 320 323 323 323 323 325 322 320 322 323 322 322 323 322 322 323 321 319 319 318 319 318
238 241 245 246 241 243 250 255 257 263 271 279 285 288 295 308 311 312 315 317 318 315 316 319 320 319 324 326 321 316 317 318 317 317 316 316 317 318 318 316 315 315 315 315
236 241 243 241 240 244 246 249 255 260 265 270 275 285 293 298 302 303 305 306 309 312 312 315 317 319 317 320 320 315 314 314 314 314 314 314 314 315 314 314 313 311 311 311
238 242 243 246 249 251 249 251 257 261 263 267 275 283 288 289 297 301 303 302 304 308 310 311 315 316 314 316 318 318 313 311 311 312 312 312 311 310 309 310 310 309 309 308
241 242 243 245 248 253 256 257 255 258 262 269 279 284 286 288 295 299 303 302 304 307 306 307 310 310 311 312 316 317 314 309 306 306 306 307 308 308 308 308 307 307 309 308
241 243 243 246 249 251 252 253 257 261 264 271 276 280 284 287 290 293 297 302 304 304 305 306 307 307 308 309 310 312 311 310 306 304 303 305 307 307 308 308 307 307 306 306
244 247 245 247 251 251 250 253 256 261 264 269 275 281 284 287 291 294 298 302 302 301 303 306 304 305 306 306 306 307 308 308 308 310 310 311 311 311 310 310 308 307 306 306
246 247 248 250 251 250 251 254 257 261 266 269 273 279 286 290 292 295 298 300 302 301 303 308 306 304 305 305 306 306 307 306 306 309 311 312 311 310 310 309 308 308 307 306
246 250 253 255 255 254 252 253 256 260 265 269 272 276 283 288 291 293 296 299 302 302 304 306 305 303 303 303 303 304 304 303 304 307 309 310 310 310 310 309 308 307 306 306
247 251 254 256 257 256 254 255 259 263 266 272 276 277 280 285 288 292 295 299 301 300 301 303 302 302 302 302 303 303 304 304 304 304 307 307 307 307 307 308 307 306 305 305
246 250 253 255 256 257 258 259 260 262 266 272 276 279 281 283 286 290 293 295 298 299 301 301 300 300 300 301 302 304 305 305 305 305 305 305 305 306 306 306 305 305 305 305
246 250 252 254 255 256 259 261 262 264 266 271 275 278 280 282 284 287 289 293 296 297 297 298 299 300 300 300 301 303 304 305 305 306 306 305 306 306 307 307 305 305 304 303
246 249 253 255 258 259 259 260 262 265 267 270 273 278 282 284 285 287 290 294 296 296 297 297 297 298 299 300 300 301 303 304 305 307 307 307 306 306 306 307 306 307 306 306
247 251 253 256 258 259 258 261 264 265 267 270 272 275 279 283 286 288 290 293 294 295 297 297 297 297 297 298 300 301 301 302 305 307 307 306 306 306 306 306 306 306 306 307
246 249 252 255 257 259 260 262 263 265 267 269 272 274 277 279 282 286 288 291 293 296 295 295 296 296 296 296 298 299 300 302 305 307 308 307 306 304 304 306 306 305 305 306
244 245 247 252 256 259 261 262 261 264 269 271 273 274 277 278 282 284 286 289 291 292 292 293 293 294 296 296 297 298 300 302 304 306 308 308 306 304 304 304 304 304 305 307
Height
5924 5926 5925 5926 5927 5927 5926 5926 5926 5925 5925 5924 5922 5921 5919 5917 5916 5916 5916 5914 5912 5911 5909 5907 5905 5903 5901 5899 5897 5895 5893 5890 5888 5886 5884 5882 5881 5879 5877 5875 5874 5872 5870 5869
5923 5924 5924 5925 5925 5926 5926 5925 5925 5925 5924 5923 5921 5920 5919 5916 5915 5915 5915 5914 5912 5910 5908 5907 5905 5903 5901 5898 5896 5894 5891 5889 5886 5884 5882 5881 5879 5878 5876 5874 5872 5870 5868 5866
5921 5922 5922 5923 5924 5924 5925 5925 5924 5924 5923 5922 5921 5920 5918 5917 5915 5914 5913 5912 5911 5909 5907 5906 5904 5902 5900 5898 5896 5893 5890 5888 5885 5882 5880 5879 5878 5876 5874 5872 5870 5868 5866 5864
5919 5920 5921 5922 5923 5923 5923 5923 5923 5922 5922 5921 5920 5918 5917 5915 5914 5913 5911 5910 5910 5908 5906 5905 5903 5901 5899 5897 5895 5892 5890 5887 5884 5882 5880 5878 5876 5875 5873 5871 5869 5866 5864 5862
5917 5919 5919 5920 5921 5921 5921 5921 5921 5920 5919 5919 5919 5917 5915 5914 5913 5911 5910 5908 5907 5907 5905 5904 5902 5901 5898 5896 5894 5891 5889 5886 5884 5881 5879 5877 5875 5873 5871 5869 5866 5864 5862 5860
5915 5917 5917 5918 5918 5919 5919 5919 5919 5918 5918 5917 5917 5916 5914 5913 5911 5910 5909 5908 5907 5905 5904 5902 5901 5899 5897 5894 5892 5890 5887 5885 5882 5880 5878 5876 5874 5871 5869 5867 5864 5862 5860 5858
5913 5914 5915 5916 5916 5917 5917 5917 5917 5916 5915 5915 5914 5913 5913 5911 5910 5908 5908 5907 5905 5904 5902 5901 5899 5897 5895 5892 5890 5888 5886 5883 5881 5878 5876 5874 5872 5870 5867 5865 5863 5860 5858 5856
5909 5912 5913 5913 5914 5914 5914 5915 5915 5914 5913 5913 5912 5911 5911 5909 5907 5907 5905 5904 5903 5902 5901 5899 5897 5895 5893 5890 5888 5886 5883 5881 5878 5876 5874 5872 5869 5867 5865 5863 5860 5858 5856 5853
5906 5909 5910 5910 5911 5912 5912 5912 5912 5911 5910 5910 5909 5909 5908 5906 5905 5904 5903 5902 5901 5900 5898 5896 5894 5892 5890 5888 5886 5883 5881 5879 5876 5874 5871 5869 5867 5865 5863 5860 5858 5855 5853 5850
5903 5905 5906 5907 5908 5908 5909 5909 5909 5908 5907 5906 5906 5905 5905 5904 5903 5902 5901 5900 5898 5897 5895 5893 5891 5889 5887 5885 5883 5881 5878 5876 5874 5871 5869 5866 5864 5862 5860 5857 5855 5852 5850 5847
5900 5901 5903 5903 5904 5904 5905 5905 5905 5905 5905 5904 5902 5904 5902 5901 5900 5899 5898 5896 5895 5893 5891 5890 5888 5886 5883 5881 5879 5877 5875 5873 5871 5868 5866 5863 5861 5859 5856 5854 5851 5849 5846 5843
5896 5897 5898 5899 5901 5901 5902 5901 5902 5902 5902 5900 5899 5902 5899 5898 5897 5896 5894 5893 5891 5890 5889 5887 5885 5883 5880 5878 5876 5874 5872 5870 5867 5865 5863 5860 5858 5855 5852 5850 5847 5844 5842 5839
5892 5893 5895 5896 5898 5898 5898 5897 5898 5898 5898 5896 5896 5898 5896 5895 5894 5893 5892 5890 5889 5888 5886 5884 5881 5878 5877 5875 5873 5871 5868 5866 5863 5861 5859 5856 5854 5851 5848 5845 5842 5839 5837 5834
5888 5889 5891 5892 5893 5893 5893 5894 5894 5894 5894 5893 5893 5893 5892 5892 5891 5890 5889 5887 5886 5884 5882 5880 5878 5876 5874 5872 5870 5868 5865 5862 5859 5857 5854 5852 5849 5847 5844 5841 5838 5835 5832 5830
5883 5884 5885 5887 5888 5889 5889 5889 5890 5890 5890 5890 5889 5889 5888 5888 5887 5886 5885 5883 5882 5880 5878 5876 5874 5872 5870 5868 5866 5863 5861 5858 5855 5852 5849 5847 5845 5842 5839 5836 5833 5830 5828 5825
5878 5879 5881 5882 5883 5884 5885 5885 5885 5885 5885 5885 5885 5885 5885 5884 5883 5882 5881 5879 5878 5876 5874 5872 5870 5868 5865 5863 5861 5859 5856 5853 5849 5846 5844 5842 5839 5836 5834 5831 5828 5825 5822 5820
5873 5875 5876 5878 5878 5879 5880 5881 5881 5881 5880 5881 5881 5882 5881 5880 5879 5878 5877 5875 5873 5872 5870 5868 5865 5863 5861 5859 5856 5854 5851 5848 5845 5842 5839 5836 5834 5831 5828 5825 5822 5819 5817 5814
5868 5869 5871 5872 5874 5875 5878 5876 5876 5876 5876 5876 5876 5876 5876 5875 5874 5873 5872 5870 5869 5867 5865 5863 5860 5858 5856 5853 5851 5849 5846 5843 5840 5836 5834 5831 5829 5826 5823 5820 5816 5813 5811 5808
5862 5864 5865 5867 5868 5869 5871 5871 5871 5872 5871 5871 5871 5871 5870 5870 5869 5868 5867 5865 5863 5861 5859 5857 5855 5852 5850 5847 5845 5843 5841 5838 5835 5832 5829 5826 5823 5820 5817 5814 5811 5808 5805 5802
5856 5858 5860 5860 5861 5863 5866 5866 5866 5867 5866 5866 5865 5865 5865 5864 5863 5863 5861 5860 5858 5855 5853 5851 5849 5847 5844 5842 5839 5837 5834 5831 5829 5826 5823 5820 5817 5814 5811 5808 5805 5802 5799 5796
5850 5851 5853 5854 5855 5856 5859 5860 5861 5862 5862 5861 5860 5860 5859 5858 5858 5857 5855 5853 5851 5849 5847 5845 5843 5841 5839 5836 5833 5831 5828 5825 5823 5820 5817 5814 5811 5808 5805 5802 5799 5796 5792 5789
5843 5845 5846 5847 5849 5852 5853 5853 5855 5855 5854 5854 5854 5854 5853 5852 5851 5850 5848 5847 5845 5843 5841 5839 5836 5834 5832 5829 5827 5825 5822 5819 5816 5813 5811 5807 5804 5801 5798 5795 5792 5789 5786 5782
5836 5838 5839 5842 5845 5846 5846 5847 5847 5847 5848 5848 5848 5847 5847 5845 5844 5843 5842 5841 5839 5837 5835 5833 5830 5828 5826 5824 5821 5819 5816 5813 5810 5807 5804 5801 5798 5795 5792 5789 5786 5782 5779 5776
5829 5831 5832 5834 5836 5838 5839 5840 5840 5841 5842 5842 5841 5841 5840 5839 5838 5837 5836 5835 5833 5831 5829 5826 5824 5821 5819 5817 5814 5812 5809 5807 5804 5800 5797 5794 5791 5788 5785 5782 5779 5776 5773 5769
5822 5824 5825 5827 5829 5831 5832 5833 5834 5835 5835 5834 5834 5834 5833 5833 5832 5831 5830 5828 5826 5824 5822 5820 5818 5815 5813 5811 5807 5805 5802 5800 5797 5793 5790 5787 5784 5781 5778 5775 5772 5769 5766 5763
5815 5816 5818 5820 5822 5824 5826 5826 5827 5827 5827 5827 5828 5827 5826 5826 5825 5824 5823 5821 5819 5817 5814 5812 5810 5808 5806 5803 5801 5798 5796 5793 5790 5787 5784 5781 5777 5774 5771 5768 5764 5761 5759 5756